DL1NER Weather Reports


Display with metric or nautical units.
time (UTC)temp
F
wind
direction
speed
MPH
gust
MPH
rain 1hr
in
rain 24hr
in
rain mn
in
humidity
%
barometer
mb
20240304133012 49 244 4.0 7.0 0.00 0.00 0.00 84 1011.0
20240304132012 49 227 3.0 7.0 0.00 0.00 0.00 84 1011.0
20240304131012 48 248 2.0 7.0 0.00 0.00 0.00 85 1011.0
20240304130012 48 221 3.0 8.0 0.00 0.00 0.00 85 1011.0
20240304125012 48 259 2.0 8.0 0.00 0.00 0.00 86 1011.1
20240304124012 47 245 4.0 9.0 0.00 0.00 0.00 85 1011.0
20240304123012 47 236 3.0 9.0 0.00 0.00 0.00 85 1011.0
20240304122012 47 277 2.0 10.0 0.00 0.00 0.00 85 1011.1
20240304121011 47 202 3.0 7.0 0.00 0.00 0.00 86 1011.0
20240304120012 47 208 3.0 9.0 0.00 0.00 0.00 86 1011.0
20240304115011 47 248 5.0 10.0 0.00 0.00 0.00 86 1011.0
20240304114011 47 246 4.0 8.0 0.00 0.00 0.00 87 1010.8
20240304113012 47 254 4.0 9.0 0.00 0.00 0.00 87 1010.9
20240304112011 46 261 4.0 9.0 0.00 0.00 0.00 87 1010.9
20240304111012 46 228 4.0 11.0 0.00 0.00 0.00 87 1010.9
20240304110011 46 223 4.0 10.0 0.00 0.00 0.00 87 1010.9
20240304105011 46 238 3.0 8.0 0.00 0.00 0.00 88 1010.8
20240304104011 46 232 4.0 11.0 0.00 0.00 0.00 88 1010.7
20240304103011 46 248 5.0 13.0 0.00 0.00 0.00 88 1010.7
20240304102011 46 226 5.0 11.0 0.00 0.00 0.00 88 1010.5
20240304101011 45 265 6.0 11.0 0.00 0.00 0.00 88 1010.5
20240304100011 45 242 7.0 13.0 0.00 0.00 0.00 88 1010.4
20240304095011 45 206 5.0 12.0 0.00 0.00 0.00 88 1010.2
20240304094011 45 280 3.0 10.0 0.00 0.00 0.00 89 1010.2
20240304093011 44 245 7.0 12.0 0.00 0.00 0.00 89 1010.1
20240304092011 44 224 3.0 10.0 0.00 0.00 0.00 89 1010.1
20240304091011 44 225 5.0 9.0 0.00 0.00 0.00 89 1010.1
20240304090010 44 240 6.0 11.0 0.00 0.00 0.00 88 1009.9
20240304085011 45 256 4.0 10.0 0.00 0.00 0.00 88 1009.8
20240304084011 45 250 5.0 9.0 0.00 0.00 0.00 88 1009.7
20240304083012 44 265 4.0 9.0 0.00 0.00 0.00 90 1009.5
20240304082010 42 250 4.0 8.0 0.00 0.00 0.00 91 1009.2
20240304081011 42 250 4.0 8.0 0.00 0.00 0.00 91 1009.2
20240304080010 40 258 2.0 6.0 0.00 0.00 0.00 94 1009.0
20240304075010 40 258 2.0 6.0 0.00 0.00 0.00 94 1009.0
20240304074011 39 252 3.0 5.0 0.00 0.00 0.00 94 1008.9
20240304073010 37 252 0.0 0.0 0.00 0.00 0.00 93 1008.8
20240304072010 37 252 0.0 0.0 0.00 0.00 0.00 93 1008.8
20240304071008 36 252 0.0 0.0 0.00 0.00 0.00 93 1008.7
20240304070008 35 252 0.0 0.0 0.00 0.00 0.00 93 1008.5
20240304065009 35 252 0.0 0.0 0.00 0.00 0.00 93 1008.5
20240304064008 34 309 0.0 1.0 0.00 0.00 0.00 93 1008.2
20240304063008 34 309 0.0 1.0 0.00 0.00 0.00 93 1008.2
20240304062012 34 309 0.0 2.0 0.00 0.00 0.00 93 1008.0
20240304061012 34 309 0.0 2.0 0.00 0.00 0.00 93 1008.1
20240304060013 34 309 1.0 3.0 0.00 0.00 0.00 93 1007.9
20240304055012 34 309 2.0 4.0 0.00 0.00 0.00 92 1007.8
20240304054012 33 313 1.0 3.0 0.00 0.00 0.00 92 1007.7
20240304053012 33 313 1.0 3.0 0.00 0.00 0.00 92 1007.5
20240304052012 33 313 1.0 2.0 0.00 0.00 0.00 92 1007.4
20240304051012 34 313 1.0 3.0 0.00 0.00 0.00 91 1007.2
20240304050012 34 313 1.0 2.0 0.00 0.00 0.00 92 1007.1
20240304045012 34 313 1.0 3.0 0.00 0.00 0.00 91 1007.1
20240304044012 34 313 2.0 3.0 0.00 0.00 0.00 91 1007.1
20240304043011 34 313 1.0 3.0 0.00 0.00 0.00 91 1006.8
20240304042011 34 313 1.0 3.0 0.00 0.00 0.00 91 1006.7
20240304041011 35 313 2.0 3.0 0.00 0.00 0.00 91 1006.4
20240304040011 35 313 1.0 3.0 0.00 0.00 0.00 90 1006.2
20240304035011 35 313 1.0 3.0 0.00 0.00 0.00 90 1006.2
20240304034011 35 313 1.0 3.0 0.00 0.00 0.00 90 1006.1
20240304033011 35 313 0.0 2.0 0.00 0.00 0.00 90 1005.9
20240304032011 35 313 2.0 4.0 0.00 0.00 0.00 90 1005.9
20240304031011 36 314 3.0 4.0 0.00 0.00 0.00 90 1005.7
20240304030011 36 67 2.0 3.0 0.00 0.00 0.00 90 1005.6
20240304025011 36 69 2.0 3.0 0.00 0.00 0.00 90 1005.3
20240304024011 36 69 2.0 3.0 0.00 0.00 0.00 89 1005.2
20240304023011 36 69 0.0 3.0 0.00 0.00 0.00 88 1005.3
20240304022011 36 69 1.0 3.0 0.00 0.00 0.00 88 1005.2
20240304021011 37 69 0.0 2.0 0.00 0.00 0.00 88 1005.1
20240304020011 37 69 2.0 3.0 0.00 0.00 0.00 88 1005.1
20240304015011 37 69 1.0 2.0 0.00 0.00 0.00 87 1004.9
20240304014011 37 69 1.0 2.0 0.00 0.00 0.00 87 1004.9
20240304013011 37 69 1.0 3.0 0.00 0.00 0.00 87 1004.8
20240304012010 37 69 0.0 0.0 0.00 0.00 0.00 87 1004.8
20240304011010 37 69 0.0 0.0 0.00 0.00 0.00 86 1004.6
20240304010011 38 69 0.0 0.0 0.00 0.00 0.00 86 1004.6
20240304005010 38 69 0.0 2.0 0.00 0.00 0.00 86 1004.5
20240304004010 38 69 1.0 3.0 0.00 0.00 0.00 86 1004.5
20240304003010 38 69 0.0 2.0 0.00 0.00 0.00 86 1004.5
20240304002010 38 69 1.0 2.0 0.00 0.00 0.00 86 1004.5
20240304001010 38 69 2.0 3.0 0.00 0.00 0.00 86 1004.4
20240304000010 38 70 1.0 3.0 0.00 0.00 0.00 86 1004.3
20240303235017 38 78 0.0 0.0 0.00 0.00 0.00 86 1004.1
20240303234010 38 78 0.0 0.0 0.00 0.00 0.00 86 1004.0
20240303233010 39 79 0.0 0.0 0.00 0.00 0.00 86 1003.9
20240303232010 39 79 0.0 0.0 0.00 0.00 0.00 86 1003.9
20240303231010 39 79 0.0 0.0 0.00 0.00 0.00 85 1003.8
20240303230010 39 79 0.0 0.0 0.00 0.00 0.00 82 1003.8
20240303225010 39 79 0.0 0.0 0.00 0.00 0.00 82 1003.8
20240303224010 39 79 0.0 0.0 0.00 0.00 0.00 81 1003.8
20240303223010 39 79 0.0 0.0 0.00 0.00 0.00 80 1003.6
20240303222010 40 79 0.0 0.0 0.00 0.00 0.00 80 1003.6
20240303221010 40 79 0.0 0.0 0.00 0.00 0.00 80 1003.5
20240303215010 40 79 0.0 0.0 0.00 0.00 0.00 77 1003.4
20240303214016 41 79 0.0 0.0 0.00 0.00 0.00 77 1003.3
20240303213010 41 79 0.0 0.0 0.00 0.00 0.00 76 1003.3
20240303212009 42 80 0.0 0.0 0.00 0.00 0.00 75 1003.1
20240303211010 42 80 1.0 2.0 0.00 0.00 0.00 75 1003.0
20240303210009 42 80 0.0 2.0 0.00 0.00 0.00 75 1003.0
20240303205009 43 80 0.0 1.0 0.00 0.00 0.00 73 1002.8
20240303204010 43 80 0.0 0.0 0.00 0.00 0.00 73 1002.8
20240303203009 44 80 0.0 2.0 0.00 0.00 0.00 73 1002.7
20240303202009 44 80 0.0 0.0 0.00 0.00 0.00 71 1002.7
20240303201009 45 80 0.0 0.0 0.00 0.00 0.00 71 1002.6
20240303200009 45 80 0.0 0.0 0.00 0.00 0.00 71 1002.6
20240303195009 45 80 0.0 0.0 0.00 0.00 0.00 70 1002.5
20240303194009 46 80 1.0 3.0 0.00 0.00 0.00 68 1002.4
20240303193009 47 80 1.0 3.0 0.00 0.00 0.00 68 1002.4
20240303192010 47 80 1.0 3.0 0.00 0.00 0.00 67 1002.2
20240303191009 47 80 1.0 3.0 0.00 0.00 0.00 67 1002.2
20240303190008 47 80 3.0 7.0 0.00 0.00 0.00 67 1002.2
20240303185009 48 83 1.0 4.0 0.00 0.00 0.00 65 1002.1
20240303184009 49 84 2.0 7.0 0.00 0.00 0.00 64 1002.0
20240303183008 49 82 2.0 4.0 0.00 0.00 0.00 63 1002.0
20240303182009 50 87 1.0 4.0 0.00 0.00 0.00 61 1001.9
20240303181008 51 88 2.0 4.0 0.00 0.00 0.00 59 1002.0
20240303180013 51 88 2.0 4.0 0.00 0.00 0.00 59 1002.0
20240303175013 52 90 2.0 4.0 0.00 0.00 0.00 57 1001.8
20240303174013 53 91 2.0 7.0 0.00 0.00 0.00 56 1001.7
20240303173013 54 90 1.0 4.0 0.00 0.00 0.00 54 1001.6
20240303172013 55 94 2.0 3.0 0.00 0.00 0.00 53 1001.5
20240303171013 56 95 3.0 6.0 0.00 0.00 0.00 53 1001.4
20240303170013 57 50 3.0 6.0 0.00 0.00 0.00 52 1001.3
20240303165012 57 69 3.0 8.0 0.00 0.00 0.00 52 1001.0
20240303164013 58 70 2.0 5.0 0.00 0.00 0.00 52 1000.9
20240303163013 58 87 4.0 9.0 0.00 0.00 0.00 51 1000.9
20240303162013 59 88 5.0 9.0 0.00 0.00 0.00 51 1001.1
20240303161013 59 84 4.0 11.0 0.00 0.00 0.00 51 1001.0
20240303160012 59 86 7.0 13.0 0.00 0.00 0.00 51 1001.0
20240303155012 59 88 8.0 12.0 0.00 0.00 0.00 51 1001.0
20240303154012 59 70 6.0 12.0 0.00 0.00 0.00 52 1000.9
20240303153012 59 63 6.0 12.0 0.00 0.00 0.00 51 1000.8
20240303152012 60 79 4.0 10.0 0.00 0.00 0.00 51 1000.7
20240303151012 60 48 3.0 8.0 0.00 0.00 0.00 51 1000.8
20240303150012 60 36 4.0 7.0 0.00 0.00 0.00 51 1000.8
20240303145012 60 100 5.0 10.0 0.00 0.00 0.00 51 1000.7
20240303144012 60 30 6.0 10.0 0.00 0.00 0.00 50 1000.7
20240303143012 61 87 7.0 13.0 0.00 0.00 0.00 50 1000.8
20240303142012 61 68 7.0 13.0 0.00 0.00 0.00 49 1000.8
20240303141012 62 96 5.0 12.0 0.00 0.00 0.00 47 1000.6
20240303140012 62 124 5.0 11.0 0.00 0.00 0.00 46 1000.7
20240303135012 62 119 5.0 11.0 0.00 0.00 0.00 46 1000.6
20240303134012 63 108 5.0 9.0 0.00 0.00 0.00 46 1000.6